EW9439 Weather Reports


Display with metric or nautical units.
time (UTC)temp
F
wind
direction
speed
MPH
gust
MPH
rain 1hr
in
rain 24hr
in
rain mn
in
humidity
%
barometer
mb
20260831114529 71 346 0.0 0.0 0.00 0.00 0.00 95 1016.8
20260831113024 71 346 0.0 0.0 0.00 0.00 0.00 95 1016.7
20260831111524 71 346 0.0 0.0 0.00 0.00 0.00 95 1016.7
20260831110024 70 346 0.0 0.0 0.00 0.00 0.00 95 1016.4
20260831104523 71 346 0.0 0.0 0.00 0.00 0.00 95 1016.2
20260831103024 71 346 0.0 0.0 0.00 0.00 0.00 95 1016.2
20260831101528 71 346 0.0 0.0 0.00 0.00 0.00 94 1015.9
20260831100025 71 346 0.0 0.0 0.00 0.00 0.00 94 1015.9
20260831094530 71 346 0.0 0.0 0.00 0.00 0.00 94 1015.8
20260831093037 71 346 0.0 0.0 0.00 0.00 0.00 94 1015.8
20260831091529 71 346 0.0 0.0 0.00 0.00 0.00 94 1015.9
20260831090034 71 346 0.0 0.0 0.00 0.00 0.00 94 1015.9
20260831084533 72 346 0.0 0.0 0.00 0.00 0.00 94 1015.8
20260831083035 72 346 0.0 0.0 0.00 0.00 0.00 94 1015.6
20260831081534 72 346 0.0 0.0 0.00 0.00 0.00 94 1015.6
20260831080038 72 346 0.0 0.0 0.00 0.00 0.00 94 1015.6
20260831074538 72 346 0.0 0.0 0.00 0.00 0.00 93 1015.4
20260831073052 72 346 0.0 0.0 0.00 0.00 0.00 93 1015.4
20260831071555 72 346 0.0 0.0 0.00 0.00 0.00 93 1015.4
20260831070043 72 346 0.0 0.0 0.00 0.00 0.00 93 1015.1
20260831064550 73 346 0.0 0.0 0.00 0.00 0.00 92 1015.2
20260831063044 73 346 0.0 0.0 0.00 0.00 0.00 92 1015.3
20260831061552 73 346 0.0 0.0 0.00 0.00 0.00 92 1015.4
20260831060049 73 346 0.0 0.0 0.00 0.00 0.00 91 1015.5
20260831054547 74 346 0.0 0.0 0.00 0.00 0.00 91 1015.5
20260831053048 74 346 0.0 0.0 0.00 0.00 0.00 91 1015.5
20260831051608 74 346 0.0 0.0 0.00 0.00 0.00 90 1015.7
20260831050051 74 346 0.0 0.0 0.00 0.00 0.00 90 1015.6
20260831044612 74 346 0.0 0.0 0.00 0.00 0.00 90 1015.6
20260831043058 75 346 0.0 0.0 0.00 0.00 0.00 89 1015.6
20260831043007 75 346 0.0 0.0 0.00 0.00 0.00 89 1015.6
20260831041558 75 346 0.0 0.0 0.00 0.00 0.00 89 1015.6
20260831040050 75 346 0.0 0.0 0.00 0.00 0.00 89 1015.7
20260831034555 75 346 0.0 0.0 0.00 0.00 0.00 88 1015.7
20260831033052 76 346 0.0 0.0 0.00 0.00 0.00 87 1015.7
20260831031549 76 346 0.0 0.0 0.00 0.00 0.00 86 1015.8
20260831030050 76 346 0.0 0.0 0.00 0.00 0.00 85 1015.9
20260831024603 77 346 0.0 0.0 0.00 0.00 0.00 85 1015.9
20260831024502 77 346 0.0 0.0 0.00 0.00 0.00 85 1015.9
20260831023003 77 346 0.0 0.0 0.00 0.00 0.00 84 1015.8
20260831021509 77 346 0.0 0.0 0.00 0.00 0.00 83 1015.8
20260831020008 78 346 0.0 0.0 0.00 0.00 0.00 82 1015.7
20260831014512 78 346 0.0 0.0 0.00 0.00 0.00 81 1015.6
20260831013015 78 346 0.0 0.0 0.00 0.00 0.00 80 1015.4
20260831011513 79 346 0.0 0.0 0.00 0.00 0.00 80 1015.2
20260831010014 80 346 0.0 0.0 0.00 0.00 0.00 78 1014.9
20260831004522 80 346 0.0 0.0 0.00 0.00 0.00 77 1014.8
20260831003025 81 346 0.0 0.0 0.00 0.00 0.00 75 1014.7
20260831001531 82 346 0.0 0.0 0.00 0.00 0.00 74 1014.7
20260831000032 83 346 0.0 0.0 0.00 0.00 0.00 73 1014.6
20260830234549 84 346 0.0 0.0 0.00 0.00 0.00 70 1014.5
20260830233034 86 346 0.0 0.0 0.00 0.00 0.00 66 1014.4
20260830231534 86 346 0.0 0.0 0.00 0.00 0.00 65 1014.4
20260830230039 86 346 0.0 0.0 0.00 0.00 0.00 63 1014.4
20260830224543 87 340 0.0 1.0 0.00 0.00 0.00 62 1014.5
20260830223045 87 264 0.0 2.0 0.00 0.00 0.00 61 1014.4
20260830221551 87 344 0.0 0.0 0.00 0.00 0.00 62 1014.5
20260830220055 87 224 0.0 0.0 0.00 0.00 0.00 62 1014.4
20260830214613 87 244 0.0 0.0 0.00 0.00 0.00 61 1014.5
20260830213051 87 214 0.0 0.0 0.00 0.00 0.00 60 1014.4
20260830211557 87 43 0.0 1.0 0.00 0.00 0.00 62 1014.5
20260830210053 87 241 0.0 0.0 0.00 0.00 0.00 64 1014.8
20260830204537 87 345 0.0 0.0 0.00 0.00 0.00 63 1014.8
20260830203047 87 342 0.0 5.0 0.00 0.00 0.00 63 1014.9
20260830201536 86 190 0.0 0.0 0.00 0.00 0.00 63 1015.0
20260830200039 86 340 0.0 0.0 0.00 0.00 0.00 66 1015.1
20260830194539 88 29 0.0 0.0 0.00 0.00 0.00 62 1015.3
20260830193104 88 335 0.0 0.0 0.00 0.00 0.00 61 1015.5
20260830191543 88 178 0.0 0.0 0.00 0.00 0.00 63 1015.7
20260830190043 87 190 0.0 0.0 0.00 0.00 0.00 64 1015.9
20260830184542 87 233 0.0 0.0 0.00 0.00 0.00 63 1016.1
20260830183044 86 348 0.0 0.0 0.00 0.00 0.00 66 1016.4
20260830181600 87 355 0.0 0.0 0.00 0.00 0.00 65 1016.6
20260830180057 86 185 0.0 0.0 0.00 0.00 0.00 67 1016.7
20260830174617 85 348 0.0 0.0 0.00 0.00 0.00 68 1017.0
20260830174503 85 348 0.0 1.0 0.00 0.00 0.00 68 1017.0
20260830173006 86 180 0.0 2.0 0.00 0.00 0.00 69 1017.2
20260830171507 85 329 0.0 0.0 0.00 0.00 0.00 70 1017.5
20260830170009 84 30 0.0 4.0 0.00 0.00 0.00 73 1017.6
20260830164510 84 342 0.0 0.0 0.00 0.00 0.00 73 1017.8
20260830163021 83 346 0.0 0.0 0.00 0.00 0.00 73 1017.9
20260830161515 82 152 0.0 0.0 0.00 0.00 0.00 76 1018.1
20260830160012 82 348 0.0 0.0 0.00 0.00 0.00 75 1018.1
20260830154520 82 194 0.0 1.0 0.00 0.00 0.00 76 1018.3
20260830153020 82 290 0.0 0.0 0.00 0.00 0.00 77 1018.3
20260830151520 81 241 0.0 0.0 0.00 0.00 0.00 78 1018.5
20260830150020 81 184 0.0 0.0 0.00 0.00 0.00 79 1018.4
20260830144532 80 304 0.0 0.0 0.00 0.00 0.00 82 1018.5
20260830143034 79 338 0.0 0.0 0.00 0.00 0.00 83 1018.5
20260830141522 79 199 0.0 0.0 0.00 0.00 0.00 83 1018.4
20260830140022 79 17 0.0 0.0 0.00 0.00 0.00 84 1018.4
20260830134530 78 94 0.0 0.0 0.00 0.00 0.00 85 1018.5
20260830133033 77 355 0.0 0.0 0.00 0.00 0.00 87 1018.4
20260830131523 76 319 0.0 0.0 0.00 0.00 0.00 90 1018.4
20260830130014 74 271 0.0 0.0 0.00 0.00 0.00 93 1018.4
20260830124513 73 269 0.0 0.0 0.00 0.00 0.00 94 1018.4
20260830123018 72 269 0.0 0.0 0.00 0.00 0.00 95 1018.4
20260830121518 72 269 0.0 0.0 0.00 0.00 0.00 95 1018.2
20260830120020 71 253 0.0 0.0 0.00 0.00 0.00 95 1017.9